• Join FlightAware (Why Join?)
  • Login
  • US Flag 
10:02AM EDT


 

Airport Tracker/Info


-or-


 

Live Flight TrackerFlight Track Log ✈ FLG3735 ✈ 01-May-2013 ✈ KDTW - KALB

Flight Track Log - Related Links

Times and Time Zones

All times are in EDT time to prevent confusion due to time zone crossing. See the FLG3735 flight status page for this flight to view local times or setup timezone preferences in your user account.

Time Position Orientation Groundspeed Altitude Reporting Facility
EDT Latitude Longitude Course Direction KTS MPH feet Rate Location/Type
10:04PM 42.1994 -83.3608 90° East 158 182 1,500  Level Cleveland Center
10:05PM 42.1533 -83.3644 183° South 204 235 3,100 1,860 Climbing Cleveland Center
10:05PM 42.1014 -83.3594 176° South 232 267 5,100 1,980 Climbing Cleveland Center
10:06PM 42.2793 -82.9327 71° East  Level FlightAware Approximate
10:07PM 42.3079 -82.7942 75° East  Level FlightAware Approximate
10:07PM 42.0975 -83.2586 93° East 257 296 7,400  Level Cleveland Center
10:07PM 42.1283 -83.1869 60° Northeast 277 319 9,900 3,000 Climbing Cleveland Center
10:08PM 42.3264 -82.6527 82° East  Level FlightAware Approximate
10:08PM 42.1353 -83.1647 67° East 278 320 10,400  Level Cleveland Center
10:08PM 42.1661 -83.0878 62° Northeast 329 379 11,500 1,560 Climbing Cleveland Center
10:09PM 42.3500 -82.5132 90° East  Level FlightAware Approximate
10:09PM 42.1750 -83.0628 64° Northeast 319 367 12,000  Level Cleveland Center
10:10PM 42.2147 -82.9550 64° Northeast 345 397 13,000 900 Climbing Cleveland Center
10:11PM 42.2586 -82.8444 62° Northeast 345 397 13,900 1,500 Climbing Cleveland Center
10:12PM 42.3025 -82.7336 62° Northeast 339 390 16,000 1,860 Climbing Cleveland Center
10:13PM 42.3400 -82.6142 67° East 334 384 17,700 1,320 Climbing Cleveland Center
10:14PM 42.3611 -82.4800 78° East 347 399 18,700 1,140 Climbing Cleveland Center
10:15PM 42.3614 -82.3394 90° East 357 411 20,000 960 Climbing Cleveland Center
10:16PM 42.3572 -82.1903 92° East 369 425 20,700 900 Climbing Cleveland Center
10:17PM 42.3511 -82.0244 93° East 397 457 21,800 1,020 Climbing Cleveland Center
10:18PM 42.3425 -81.8753 94° East 403 464 22,800 900 Climbing Cleveland Center
10:19PM 42.3419 -81.7378 90° East 403 464 23,700 900 Climbing Cleveland Center
10:20PM 42.3558 -81.5861 83° East 403 464 24,600 840 Climbing Cleveland Center
10:21PM 42.3694 -81.4319 83° East 408 470 25,400 720 Climbing Cleveland Center
10:22PM 42.3811 -81.2747 84° East 408 470 26,100 660 Climbing Cleveland Center
10:23PM 42.3944 -81.1200 83° East 408 470 26,800 420 Climbing Cleveland Center
10:24PM 42.4075 -80.9486 84° East 408 470 27,000 60 Climbing Cleveland Center
10:25PM 42.4203 -80.7883 84° East 422 486 27,000  Level Cleveland Center
10:26PM 42.4331 -80.6283 84° East 427 491 27,000  Level Cleveland Center
10:27PM 42.4456 -80.4678 84° East 427 491 27,000  Level Cleveland Center
10:28PM 42.4578 -80.3075 84° East 427 491 27,000  Level Cleveland Center
10:29PM 42.4697 -80.1469 84° East 427 491 27,000  Level Cleveland Center
10:30PM 42.4817 -79.9836 84° East 427 491 27,000  Level Cleveland Center
10:31PM 42.4953 -79.8228 83° East 427 491 27,000  Level Cleveland Center
10:32PM 42.5067 -79.6622 84° East 427 491 27,000  Level Cleveland Center
10:33PM 42.5156 -79.5017 86° East 427 491 27,000  Level Cleveland Center
10:34PM 42.5264 -79.3408 85° East 427 491 27,000  Level Cleveland Center
10:35PM 42.5350 -79.1800 86° East 427 491 27,000  Level Cleveland Center
10:36PM 42.5475 -79.0161 84° East 427 491 27,000  Level Cleveland Center
10:37PM 42.5556 -78.8553 86° East 427 491 27,000  Level Cleveland Center
10:38PM 42.5658 -78.6972 85° East 427 491 27,000  Level Cleveland Center
10:39PM 42.5756 -78.5361 85° East 427 491 27,000  Level Cleveland Center
10:40PM 42.5831 -78.3753 86° East 422 486 27,000  Level Cleveland Center
10:41PM 42.5922 -78.2197 85° East 422 486 27,000  Level Cleveland Center
10:42PM 42.5994 -78.0644 86° East 422 486 27,000  Level Cleveland Center
10:43PM 42.6083 -77.9058 86° East 422 486 27,000  Level Cleveland Center
10:44PM 42.6150 -77.7478 87° East 422 486 27,000  Level Cleveland Center
10:45PM 42.6258 -77.5919 85° East 422 486 27,000  Level Cleveland Center
10:46PM 42.6322 -77.4447 87° East 430 495 27,000  Level Cleveland Center
10:47PM 42.6383 -77.2864 87° East 430 495 27,000  Level Cleveland Center
10:48PM 42.6461 -77.1281 86° East 425 489 27,000  Level Cleveland Center
10:48PM 42.6492 -77.0394 87° East 417 480 27,000  Level Boston Center
10:49PM 42.6575 -76.8844 86° East 417 480 27,000  Level Boston Center
10:50PM 42.6633 -76.7267 87° East 417 480 27,000  Level Boston Center
10:51PM 42.6694 -76.5689 87° East 417 480 27,000  Level Boston Center
10:52PM 42.6769 -76.4114 86° East 417 480 27,000 -300 Level Boston Center
10:53PM 42.6825 -76.2533 87° East 417 480 26,500 -900 Descending Boston Center
10:54PM 42.6872 -76.1094 87° East 422 486 25,200 -1,200 Descending Boston Center
10:55PM 42.6911 -75.9828 88° East 422 486 24,100 -1,380 Descending Boston Center
10:56PM 42.6986 -75.8078 87° East 403 464 22,500 -1,500 Descending Boston Center
10:57PM 42.7047 -75.6642 87° East 389 448 21,100 -1,500 Descending Boston Center
10:58PM 42.7067 -75.5200 89° East 382 440 19,600 -1,440 Descending Boston Center
10:59PM 42.7125 -75.3819 87° East 377 434 18,300 -1,200 Descending Boston Center
11:00PM 42.7161 -75.2436 88° East 372 428 17,300 -1,200 Descending Boston Center
11:01PM 42.7192 -75.1081 88° East 362 417 15,900 -1,440 Descending Boston Center
11:02PM 42.7244 -74.9725 87° East 362 417 14,500 -1,500 Descending Boston Center
11:03PM 42.7261 -74.8933 88° East 356 410 13,700 -1,440 Descending Boston Center
11:03PM 42.7275 -74.8369 88° East 362 417 13,100 -1,200 Descending Boston Center
11:04PM 42.7294 -74.7325 89° East 356 410 11,900 -1,080 Descending Boston Center
11:05PM 42.7347 -74.5658 87° East 344 396 11,000 -780 Descending Boston Center
11:06PM 42.7433 -74.4475 84° East 325 374 10,400 -960 Descending Boston Center
11:07PM 42.7575 -74.3461 79° East 290 334 9,100 -1,680 Descending Boston Center
11:08PM 42.7717 -74.2503 79° East 260 299 7,100 -1,860 Descending Boston Center
11:09PM 42.7856 -74.1544 79° East 260 299 5,400 -1,740 Descending Boston Center
11:10PM 42.8014 -74.0672 76° East 254 292 3,700 -1,200 Descending Boston Center
11:11PM 42.8217 -73.9658 75° East 211 243 2,900 -780 Descending Boston Center
11:12PM 42.8392 -73.8956 71° East 182 209 2,100 -480 Descending Boston Center
11:13PM 42.8506 -73.8278 77° East 186 214 2,000 -360 Descending Boston Center
11:14PM 42.8111 -73.8128 164° South 128 147 1,400 -600 Descending Boston Center
11:15PM 42.7797 -73.8092 175° South 110 127 800 -600 Descending Boston Center